Location: Sumter
(33.9203°N, 80.3401°W)
Time: 11:27:10
(UTC+00:00)

Hubble Space Telescope - Visible Passes

Search period start: 12 August 2022 00:00
Search period end: 22 August 2022 00:00
Orbit: 532 x 535 km, 28.5° (Epoch: 11 August)

Date Brightness Start Highest point End Pass type
(mag) Time Alt. Az. Time Alt. Az. Time Alt. Az.
12 Aug 1.5 01:18:52 10° WSW 01:22:39 36° S 01:24:25 24° SE visible
13 Aug 1.7 01:06:49 10° WSW 01:10:34 34° S 01:12:55 19° SE visible
14 Aug 1.9 00:54:48 10° WSW 00:58:28 32° S 01:01:24 14° SE visible
15 Aug 2.0 00:42:47 10° WSW 00:46:22 29° SSW 00:49:54 10° SE visible
16 Aug 2.3 00:30:49 10° WSW 00:34:15 26° SSW 00:37:41 10° SE visible
